Temperature
20 20 20 19 19 19 19 19 19 19 19 19 18 18 18 18 18 18 18 18 18 18 17 17 17 18 18 18 18 17 17 17 17 17 17 17 17 16 16 16 16 16 16
20 20 20 19 19 19 19 19 18 18 18 18 18 18 18 18 18 18 18 17 17 17 17 17 17 17 17 17 17 17 17 17 17 16 16 16 16 16 16 16 16 16 16
20 20 19 19 19 19 19 18 18 18 18 18 18 18 18 18 18 18 17 17 17 17 17 17 17 17 17 17 17 17 17 17 16 16 16 16 16 16 16 16 16 16 15
20 19 19 19 19 18 18 18 18 18 18 18 18 18 18 18 18 18 17 17 17 17 17 17 17 17 17 17 17 17 17 16 16 16 16 15 15 15 15 15 15 15 15
20 19 19 19 18 18 18 18 18 18 18 18 18 18 17 17 17 17 17 17 17 17 17 17 17 17 17 17 16 16 16 16 16 16 15 15 15 15 15 15 15 15 15
19 19 19 19 18 18 18 18 18 18 18 18 18 17 17 17 17 17 17 17 17 17 17 17 16 16 16 16 16 16 16 16 15 15 15 15 15 15 15 15 15 14 14
19 19 19 18 18 18 18 17 18 18 18 18 17 17 17 17 17 17 17 17 17 16 16 16 16 16 16 16 16 16 16 15 15 15 15 15 15 15 15 15 14 14 14
19 18 18 18 18 18 17 17 18 18 17 17 17 17 17 17 17 17 17 16 16 16 16 16 16 16 16 16 15 15 15 15 15 15 15 15 14 14 14 14 14 14 14
19 18 18 18 18 17 17 17 17 17 17 17 17 17 16 17 17 16 16 16 16 16 16 16 15 15 15 15 15 15 15 15 15 14 14 14 14 14 14 14 14 14 14
19 18 18 18 18 17 17 17 17 17 17 16 16 16 16 16 16 16 16 16 15 15 15 15 15 15 15 15 14 14 14 14 14 14 14 14 14 14 14 14 13 13 13
18 18 18 18 18 17 17 17 17 17 17 16 16 16 16 16 16 16 16 15 15 15 15 15 15 15 15 14 14 14 14 14 14 14 14 14 14 13 13 13 13 13 13
18 18 17 17 17 17 17 17 17 16 16 16 16 16 16 16 16 16 15 15 15 15 15 15 14 14 14 14 14 14 14 13 13 13 13 13 13 13 13 13 13 13 13
18 17 17 17 16 16 16 16 16 16 16 16 16 16 15 15 16 15 15 15 15 14 14 14 14 14 14 14 13 13 13 13 13 13 13 13 13 13 13 12 12 12 12
17 17 16 16 16 16 16 16 16 16 16 16 15 15 15 15 15 15 15 14 14 14 14 14 13 13 13 13 13 13 13 13 13 13 12 12 12 12 12 12 12 12 12
16 16 16 16 16 16 16 16 16 16 15 15 15 15 14 14 14 14 14 14 14 13 13 13 13 13 12 12 12 12 12 12 12 12 12 12 12 12 12 12 11 11 11
16 16 15 15 15 15 15 15 15 15 15 15 15 14 14 14 14 14 14 14 13 13 13 12 12 12 12 12 12 12 12 12 12 12 12 12 11 11 11 11 11 11 11
16 16 15 15 15 15 15 15 15 15 15 14 14 14 14 14 13 13 13 13 13 13 12 12 12 12 12 12 12 12 11 11 11 11 11 11 11 11 11 11 11 11 11
15 15 15 15 15 15 15 15 15 14 14 14 14 14 13 13 13 13 13 13 12 12 12 12 12 12 12 11 11 11 11 11 11 11 11 11 11 11 10 10 10 10 10
15 15 15 15 15 15 15 15 15 14 14 14 13 13 13 13 12 12 12 12 12 12 12 12 12 11 11 11 11 11 11 11 10 10 10 10 10 10 10 10 10 10 10
15 15 15 15 15 15 15 15 14 14 14 13 13 13 12 12 12 12 12 11 11 11 11 11 11 11 11 11 11 10 10 10 10 10 10 10 10 9 9 9 9 9 9
15 15 15 15 15 15 15 14 14 14 13 13 13 12 12 12 12 12 11 11 11 11 11 11 11 11 11 10 10 10 10 10 10 9 9 9 9 9 9 9 9 9 9
14 14 14 14 14 14 14 14 14 14 13 13 12 12 12 12 11 11 11 11 11 11 11 11 10 10 10 10 10 10 10 9 9 9 9 9 8 8 8 8 8 8 8
14 14 14 14 14 14 14 14 13 13 13 12 12 12 12 11 11 11 11 11 11 10 10 10 10 10 9 9 9 9 9 9 9 8 8 8 8 8 8 7 7 7 7
13 13 13 13 13 13 13 13 13 13 12 12 12 12 11 11 11 11 11 10 10 10 10 10 10 9 9 9 9 9 8 8 8 8 8 8 7 7 7 7 7 7 7
13 13 13 13 13 13 13 13 12 12 12 12 12 11 11 11 11 11 10 10 10 10 10 9 9 9 9 8 8 8 8 8 8 7 7 7 7 7 7 7 7 7 7
13 13 13 13 12 12 12 12 12 12 12 12 11 11 11 11 10 10 10 10 10 9 9 9 9 8 8 8 8 8 7 7 7 7 7 7 7 6 6 6 6 6 6
Wind_Speed
6 5 3 4 3 3 2 1 1 1 1 1 1 2 2 2 2 2 2 2 2 2 3 2 3 3 4 4 3 2 2 2 3 3 2 1 1 1 3 4 5 6 7
6 5 4 4 3 3 3 2 2 2 2 2 2 2 3 2 2 2 3 2 2 3 2 2 3 3 3 3 4 3 3 2 2 3 2 1 1 2 2 3 4 5 5
6 5 4 4 3 3 2 2 2 2 3 3 3 2 2 2 2 3 3 3 3 3 2 2 2 3 3 3 4 3 3 3 1 2 2 1 1 1 1 2 2 1 4
4 5 4 3 3 2 2 2 2 2 2 2 3 3 3 2 2 3 2 3 3 3 2 1 2 1 2 4 4 4 3 3 2 1 1 1 1 1 1 2 1 1 2
3 4 4 4 3 2 2 2 1 1 2 2 3 3 3 3 2 1 2 3 3 3 2 1 1 0 1 2 3 3 3 2 2 1 1 0 0 0 1 2 2 1 2
3 3 3 3 3 2 2 2 2 2 2 2 3 3 3 3 2 1 2 3 3 3 2 1 1 1 1 0 2 3 2 2 2 1 1 1 1 1 1 2 1 1 2
2 2 3 3 3 3 3 2 2 2 2 3 3 3 3 2 2 2 3 3 3 2 2 1 2 1 1 1 1 1 2 2 2 2 2 2 2 2 2 2 2 2 2
3 2 2 3 3 3 3 3 3 2 3 3 3 3 3 3 3 3 3 3 3 2 2 3 2 1 2 1 2 2 2 2 3 1 1 2 2 1 2 3 4 3 3
3 3 3 3 3 3 3 3 3 3 4 3 3 3 3 3 4 4 3 3 3 3 3 2 2 2 2 2 2 2 2 2 1 1 1 2 3 3 2 1 3 2 3
3 3 3 3 3 4 4 3 3 3 3 3 3 3 4 3 4 5 4 3 3 3 2 2 2 2 3 2 3 3 3 3 2 2 2 2 3 3 3 3 3 3 3
2 3 3 3 3 4 3 3 3 3 3 3 3 3 3 4 4 4 4 3 3 3 2 2 1 0 2 3 3 3 4 4 3 3 3 3 3 2 3 3 3 3 3
2 3 3 3 4 3 3 3 3 3 4 4 4 3 2 2 1 1 3 5 5 4 3 2 1 1 2 3 3 5 6 5 3 3 2 3 2 2 2 3 3 2 2
2 2 2 2 3 3 3 3 3 3 4 3 2 1 0 1 1 1 1 3 4 3 3 3 4 4 3 3 4 6 5 3 3 3 3 2 2 2 2 2 2 2 3
2 1 2 2 2 1 2 3 2 2 2 1 1 1 0 1 1 1 1 2 2 2 2 3 4 6 5 5 4 3 3 2 2 3 2 2 1 1 1 1 2 2 2
2 2 2 2 2 1 1 2 1 2 1 1 1 1 1 0 1 1 1 1 1 1 1 2 2 2 2 2 2 2 2 2 2 2 2 1 1 1 1 1 1 2 2
2 2 2 2 1 1 1 2 5 3 4 4 3 2 2 2 2 2 2 1 1 1 1 3 3 2 3 2 2 2 2 1 1 1 1 1 1 1 1 1 1 2 2
2 2 2 2 2 2 2 2 1 1 2 3 2 1 1 2 1 1 2 2 2 1 2 3 3 2 2 2 2 2 1 1 1 1 1 2 2 1 1 2 2 2 2
2 3 3 3 3 3 3 3 3 3 1 0 1 1 2 2 1 1 1 1 1 2 2 2 2 1 1 1 2 2 1 1 1 1 1 2 1 1 2 2 2 2 2
3 2 2 2 3 3 3 3 3 2 2 1 1 1 1 2 1 2 1 1 3 3 2 2 1 1 1 1 1 1 1 1 1 1 2 2 2 2 2 3 2 2 2
2 2 2 3 3 3 3 2 1 1 1 1 1 1 1 1 1 2 2 3 4 3 2 1 1 1 1 0 0 1 2 1 1 2 1 2 2 3 3 3 2 2 2
2 2 3 4 3 2 1 1 0 1 1 0 0 1 2 2 2 2 2 2 2 2 1 1 1 1 0 0 1 1 2 2 1 2 1 1 2 2 2 2 2 2 2
2 2 3 2 1 0 0 0 1 1 1 1 0 1 3 2 2 2 2 2 2 1 1 1 1 1 1 1 1 1 1 2 2 2 2 2 2 2 3 3 3 3 2
2 2 2 1 1 1 0 1 1 1 1 1 1 1 2 2 2 2 1 1 1 1 1 1 1 1 1 1 1 2 2 2 2 2 2 2 2 2 2 2 3 3 3
2 1 1 1 1 1 1 0 0 1 1 1 1 1 2 2 2 1 0 0 0 0 1 1 0 1 1 1 2 3 3 3 3 3 3 2 3 3 3 3 3 3 3
1 1 1 1 1 1 1 1 0 0 0 0 1 0 0 1 1 1 0 0 1 1 0 0 0 0 1 3 3 3 3 3 3 4 3 2 3 3 3 3 3 3 3
0 1 1 1 1 1 1 1 0 0 1 1 0 1 0 1 1 1 1 1 1 1 1 0 0 1 2 2 3 3 3 2 2 4 4 3 3 3 4 4 4 4 5
Wind_Direction
180 187 184 175 184 196 216 245 245 278 280 285 292 283 251 224 223 223 242 242 234 253 269 276 280 289 304 309 305 296 277 254 256 274 282 282 188 219 177 189 190 178 189
175 172 171 173 183 198 205 219 224 233 245 242 244 260 260 244 229 229 240 250 234 240 254 279 292 295 300 308 308 300 288 275 251 266 277 252 223 207 193 211 215 203 183
171 172 173 184 190 203 208 215 223 235 234 239 241 234 247 258 254 245 237 249 254 259 256 261 281 296 310 312 310 308 307 301 261 246 264 254 263 266 214 246 235 230 208
163 170 173 185 190 197 205 216 212 219 214 227 252 245 238 243 268 276 257 248 257 263 261 269 284 287 303 307 305 309 305 301 295 267 250 240 219 239 218 258 268 265 246
166 173 176 182 178 188 204 212 207 215 226 232 249 253 247 235 250 257 277 260 255 257 253 250 272 102 35 350 317 323 320 313 304 287 262 270 189 185 261 260 259 252 231
176 181 170 176 177 193 216 208 209 216 229 234 234 245 251 256 262 231 237 268 264 254 253 264 243 184 116 43 327 333 334 308 307 301 286 264 246 251 267 266 271 274 260
188 184 169 176 184 201 222 215 232 234 233 239 240 245 244 243 270 290 257 259 256 265 260 254 273 270 196 226 257 280 313 296 261 242 257 260 255 263 276 283 288 279 263
191 197 186 193 203 207 217 225 232 236 238 237 234 237 241 242 242 241 242 235 242 242 238 232 242 247 288 286 275 288 285 304 291 283 260 263 259 276 276 273 261 254 240
201 203 207 204 211 217 222 236 243 242 240 237 233 233 233 239 244 240 228 231 237 243 238 241 222 211 263 246 240 255 267 281 325 59 155 203 220 253 265 293 287 271 264
210 215 220 213 214 220 221 231 232 237 240 240 240 237 230 233 232 228 227 238 243 248 231 222 211 224 251 240 240 247 253 261 263 272 254 240 228 231 228 229 254 267 266
227 217 217 216 224 223 217 220 224 233 239 237 236 246 234 225 216 217 225 240 245 253 246 242 242 228 255 270 266 257 258 267 262 243 239 238 229 217 228 236 240 247 256
222 222 218 215 229 225 215 227 225 228 233 234 232 240 234 202 170 225 242 247 255 251 256 255 250 242 285 288 274 266 273 266 257 250 254 250 242 232 237 236 234 252 250
215 216 217 211 222 202 212 228 224 227 238 234 209 220 245 101 74 30 259 267 272 260 275 276 281 277 272 270 255 264 266 253 249 254 254 254 229 232 235 233 231 244 258
191 208 210 211 220 202 224 237 245 259 269 293 297 284 59 89 51 9 333 314 309 297 299 301 299 283 272 261 264 262 247 250 261 269 269 270 276 252 240 246 258 253 260
187 199 207 221 214 168 101 29 25 33 22 335 321 338 332 333 9 349 287 290 298 297 289 274 266 263 261 258 258 267 263 249 265 289 296 302 292 269 283 328 313 289 265
197 210 218 215 195 193 169 94 51 59 59 56 54 59 41 90 112 29 358 305 255 228 257 258 254 253 266 267 261 257 269 267 287 310 308 295 288 279 283 286 276 283 291
208 221 219 213 210 217 208 180 159 64 61 49 40 87 149 143 108 349 321 311 293 213 252 263 265 269 281 286 289 280 277 301 320 317 321 322 312 301 295 291 287 295 298
239 237 224 205 212 222 224 214 202 203 203 224 320 219 182 180 203 271 297 345 307 255 248 255 265 269 282 297 296 295 292 291 287 289 305 307 306 304 295 286 287 291 293
244 239 230 234 240 228 228 234 225 201 189 167 125 103 197 191 213 270 257 264 261 266 263 265 281 287 292 296 291 296 297 290 292 290 303 310 314 317 306 303 306 304 295
238 217 228 243 249 247 244 249 226 171 157 148 151 141 166 202 237 245 239 256 261 267 277 292 307 291 263 289 329 319 320 333 321 294 317 335 328 322 317 319 322 313 298
254 216 226 249 252 255 249 251 200 155 183 184 139 126 150 220 253 239 243 263 279 297 308 302 315 331 360 60 30 328 318 325 347 336 346 349 335 329 319 316 318 311 310
272 248 245 242 234 152 2 309 231 172 167 153 176 181 196 253 277 274 278 288 301 340 3 10 351 40 60 49 36 5 343 350 6 8 8 1 346 335 334 334 330 320 312
256 249 238 215 191 131 214 266 232 173 188 210 218 203 203 253 288 298 288 319 356 358 6 20 26 35 65 65 53 44 22 18 7 2 354 342 337 332 327 324 322 322 331
272 243 201 180 137 162 191 157 142 195 205 216 222 215 202 217 254 258 246 307 52 33 17 41 57 41 61 74 81 69 50 24 3 356 348 323 316 320 328 330 319 315 320
234 202 171 139 160 168 139 111 88 70 250 268 266 274 298 271 274 293 306 23 63 68 55 48 317 328 91 100 97 90 82 57 22 346 324 307 307 312 308 302 304 309 304
213 157 119 112 130 124 110 115 97 7 325 326 341 23 22 327 327 345 11 21 16 14 7 348 27 100 98 104 102 104 105 74 12 340 316 295 294 301 307 307 310 308 302
Height
1515 1516 1518 1518 1519 1520 1520 1520 1520 1520 1521 1521 1521 1521 1521 1520 1520 1520 1520 1519 1519 1519 1519 1518 1518 1518 1518 1517 1517 1517 1516 1516 1514 1513 1514 1513 1512 1512 1511 1511 1512 1511 1511
1513 1514 1515 1516 1517 1517 1517 1518 1518 1517 1517 1518 1518 1518 1519 1518 1518 1518 1518 1517 1517 1517 1516 1516 1516 1515 1515 1514 1514 1514 1513 1513 1512 1511 1510 1510 1509 1509 1509 1509 1509 1509 1509
1512 1513 1513 1514 1515 1515 1515 1515 1515 1514 1514 1515 1515 1515 1516 1516 1516 1516 1515 1515 1515 1514 1514 1514 1513 1513 1512 1512 1511 1511 1510 1510 1509 1509 1507 1507 1507 1507 1507 1507 1507 1507 1507
1510 1511 1511 1512 1512 1513 1513 1513 1513 1512 1512 1512 1513 1513 1514 1514 1514 1513 1513 1513 1513 1512 1512 1511 1511 1510 1509 1509 1509 1508 1508 1507 1507 1506 1505 1504 1504 1504 1504 1504 1504 1505 1505
1508 1509 1509 1510 1510 1511 1511 1511 1511 1511 1511 1511 1510 1511 1511 1511 1511 1511 1511 1511 1510 1510 1509 1509 1508 1508 1507 1507 1506 1505 1505 1504 1504 1503 1502 1502 1501 1501 1501 1501 1502 1502 1502
1506 1506 1507 1508 1508 1509 1509 1509 1509 1509 1509 1509 1508 1508 1509 1509 1509 1509 1508 1508 1508 1507 1507 1506 1505 1505 1504 1504 1504 1503 1503 1502 1501 1500 1500 1499 1499 1499 1499 1500 1500 1500 1499
1503 1504 1505 1505 1506 1506 1507 1507 1506 1506 1506 1506 1506 1506 1506 1506 1506 1506 1505 1505 1505 1504 1503 1503 1503 1502 1501 1501 1500 1500 1500 1499 1499 1498 1497 1497 1497 1497 1497 1497 1497 1497 1497
1501 1502 1502 1503 1503 1504 1504 1504 1504 1504 1503 1503 1503 1503 1503 1503 1503 1502 1502 1502 1502 1501 1500 1500 1500 1499 1499 1498 1497 1497 1496 1495 1495 1495 1494 1494 1494 1494 1494 1495 1494 1494 1494
1498 1499 1500 1500 1500 1501 1501 1501 1501 1501 1500 1500 1500 1500 1499 1499 1499 1499 1499 1499 1498 1498 1497 1497 1497 1496 1495 1495 1495 1494 1493 1492 1492 1492 1492 1491 1491 1491 1491 1491 1491 1491 1490
1495 1496 1497 1497 1497 1497 1498 1498 1498 1498 1498 1497 1497 1497 1496 1496 1496 1496 1496 1496 1495 1494 1494 1494 1494 1493 1492 1492 1492 1491 1490 1489 1489 1488 1488 1488 1488 1487 1488 1488 1487 1487 1487
1492 1493 1493 1494 1494 1494 1495 1495 1495 1495 1495 1494 1494 1493 1493 1493 1493 1493 1493 1492 1491 1491 1490 1490 1490 1490 1490 1489 1489 1488 1487 1487 1486 1486 1485 1485 1484 1484 1484 1484 1484 1484 1484
1489 1490 1490 1491 1491 1492 1492 1492 1492 1492 1492 1491 1491 1491 1490 1490 1490 1489 1489 1489 1489 1488 1487 1487 1487 1487 1487 1486 1486 1485 1484 1484 1484 1483 1483 1482 1481 1481 1480 1480 1480 1481 1480
1486 1487 1487 1488 1488 1489 1489 1489 1489 1489 1489 1489 1489 1489 1488 1487 1486 1486 1486 1486 1485 1485 1484 1484 1484 1484 1483 1482 1482 1481 1481 1481 1481 1480 1479 1479 1478 1478 1478 1477 1477 1477 1477
1483 1484 1484 1485 1485 1486 1486 1487 1487 1487 1487 1487 1486 1486 1486 1484 1484 1483 1482 1482 1482 1481 1481 1481 1480 1480 1479 1478 1478 1478 1478 1478 1477 1477 1477 1476 1476 1475 1475 1474 1474 1473 1473
1481 1481 1482 1483 1483 1482 1483 1484 1484 1484 1485 1484 1484 1483 1482 1482 1481 1480 1479 1479 1478 1479 1478 1478 1477 1477 1477 1476 1476 1476 1475 1475 1475 1474 1474 1474 1473 1473 1472 1472 1471 1471 1471
1478 1479 1480 1481 1480 1481 1481 1481 1481 1481 1481 1481 1481 1481 1480 1480 1478 1477 1477 1476 1476 1476 1475 1475 1475 1475 1474 1474 1473 1473 1473 1472 1471 1471 1471 1471 1471 1471 1470 1469 1469 1468 1468
1476 1477 1477 1478 1478 1478 1478 1478 1478 1479 1479 1478 1478 1478 1478 1477 1476 1475 1474 1474 1474 1473 1473 1472 1472 1472 1472 1472 1471 1471 1470 1470 1469 1469 1469 1468 1468 1468 1467 1467 1466 1466 1465
1474 1475 1475 1476 1476 1476 1476 1476 1476 1476 1475 1475 1475 1475 1475 1474 1473 1472 1472 1471 1471 1471 1470 1470 1470 1470 1469 1469 1469 1468 1468 1467 1467 1467 1466 1466 1466 1465 1464 1464 1463 1463 1462
1472 1472 1473 1473 1474 1474 1474 1474 1474 1474 1474 1473 1473 1472 1472 1472 1471 1470 1470 1469 1469 1469 1469 1469 1469 1468 1468 1467 1467 1466 1466 1465 1465 1464 1464 1464 1463 1462 1462 1461 1460 1459 1459
1470 1470 1470 1471 1471 1471 1471 1472 1472 1472 1472 1472 1471 1471 1470 1470 1469 1468 1468 1468 1468 1467 1467 1467 1467 1466 1466 1465 1465 1464 1464 1463 1463 1462 1461 1461 1461 1460 1459 1458 1457 1456 1455
1467 1467 1467 1468 1468 1469 1469 1469 1469 1470 1470 1470 1470 1469 1469 1468 1468 1468 1467 1467 1467 1466 1466 1465 1465 1464 1464 1463 1463 1462 1461 1460 1460 1459 1458 1458 1458 1457 1456 1455 1454 1453 1453
1464 1464 1465 1465 1466 1466 1467 1467 1468 1468 1468 1468 1468 1468 1467 1467 1467 1467 1466 1466 1465 1465 1464 1464 1463 1462 1462 1461 1460 1460 1459 1458 1457 1456 1456 1456 1455 1454 1453 1452 1451 1451 1450
1461 1462 1462 1463 1463 1464 1465 1465 1465 1466 1466 1466 1466 1465 1465 1465 1465 1465 1464 1464 1463 1463 1462 1462 1461 1460 1459 1459 1458 1457 1456 1455 1455 1454 1454 1453 1453 1452 1451 1450 1450 1449 1448
1459 1460 1460 1461 1461 1462 1462 1463 1463 1463 1464 1464 1463 1463 1463 1463 1463 1463 1462 1462 1461 1460 1460 1459 1459 1458 1457 1456 1456 1455 1454 1454 1453 1452 1451 1451 1450 1450 1449 1449 1448 1447 1446
1457 1458 1458 1459 1459 1460 1460 1460 1461 1461 1461 1462 1461 1461 1461 1461 1460 1460 1460 1459 1459 1458 1457 1457 1456 1455 1454 1453 1453 1452 1451 1451 1450 1450 1449 1448 1448 1448 1447 1446 1446 1445 1444
1456 1456 1457 1457 1458 1458 1458 1458 1459 1459 1459 1459 1459 1459 1459 1458 1458 1458 1457 1457 1456 1455 1455 1454 1453 1452 1451 1451 1450 1449 1448 1448 1447 1447 1446 1445 1445 1445 1444 1444 1443 1442 1441